When you browse on this site, cookies collect data to enhance your experience and personalize the content and advertising you see.
Visit our Privacy Policy to learn more. By continuing to use the site, you agree to this use of cookies and data.
  • In Portugal
  • List of Countries
  • For 7 days
  • Water Temperature
  • Satellite Maps
  • Weather Map
  • Weather Widgets
  • user-avatar
    Login

    Hourly Weather Seki

    Today, 24 March, Sunday

    Time Temperature Precipitation Wind Pressure Humidity
    00:00 +7°C° 0 mm 2 mps 753 mmHg 50%
    01:00 +8°C° 0 mm 1 mps 752 mmHg 58%
    02:00 +7°C° 0 mm 2 mps 752 mmHg 67%
    03:00 +7°C° 0 mm 3 mps 752 mmHg 76%
    04:00 +7°C° 0 mm 3 mps 752 mmHg 85%
    05:00 +6°C° 0 mm 4 mps 753 mmHg 85%
    06:00 +6°C° 0 mm 4 mps 753 mmHg 84%
    07:00 +6°C° 0 mm 4 mps 753 mmHg 84%
    08:00 +7°C° 0 mm 4 mps 753 mmHg 73%
    09:00 +8°C° 0 mm 4 mps 753 mmHg 63%
    10:00 +10°C° 0 mm 4 mps 753 mmHg 53%
    11:00 +10°C° 0 mm 3 mps 753 mmHg 47%
    12:00 +11°C° 0 mm 3 mps 752 mmHg 41%
    13:00 +12°C° 0 mm 3 mps 752 mmHg 35%
    14:00 +12°C° 0 mm 3 mps 751 mmHg 35%
    15:00 +13°C° 0 mm 2 mps 751 mmHg 34%
    16:00 +13°C° 0 mm 2 mps 750 mmHg 34%
    17:00 +10°C° 0 mm 2 mps 750 mmHg 38%
    18:00 +9°C° 0 mm 2 mps 750 mmHg 42%
    19:00 +9°C° 0 mm 1 mps 749 mmHg 47%
    20:00 +8°C° 0 mm 1 mps 749 mmHg 48%
    21:00 +8°C° 0 mm 1 mps 749 mmHg 48%
    22:00 +8°C° 0 mm 1 mps 748 mmHg 49%
    23:00 +7°C° 0 mm 0 mps 748 mmHg 50%

    Tomorrow, 25 March, Monday

    Time Temperature Precipitation Wind Pressure Humidity
    00:00 +7°C° 0 mm 0 mps 747 mmHg 51%
    01:00 +7°C° 0 mm 0 mps 747 mmHg 52%
    02:00 +6°C° 0.2 mm 0 mps 746 mmHg 57%
    03:00 +7°C° 0.2 mm 1 mps 746 mmHg 62%
    04:00 +7°C° 0.2 mm 1 mps 745 mmHg 67%
    05:00 +7°C° 0.1 mm 1 mps 745 mmHg 69%
    06:00 +6°C° 0.1 mm 2 mps 745 mmHg 70%
    07:00 +6°C° 0.1 mm 2 mps 745 mmHg 71%
    08:00 +7°C° 0 mm 2 mps 745 mmHg 63%
    09:00 +9°C° 0 mm 3 mps 744 mmHg 55%
    10:00 +10°C° 0 mm 3 mps 744 mmHg 46%
    11:00 +10°C° 0.1 mm 3 mps 744 mmHg 46%
    12:00 +11°C° 0.1 mm 3 mps 743 mmHg 46%
    13:00 +11°C° 0.1 mm 4 mps 743 mmHg 46%
    14:00 +11°C° 0.2 mm 4 mps 743 mmHg 45%
    15:00 +9°C° 0.2 mm 5 mps 743 mmHg 44%
    16:00 +9°C° 0.2 mm 5 mps 743 mmHg 44%
    17:00 +8°C° 0.1 mm 4 mps 743 mmHg 49%
    18:00 +8°C° 0.1 mm 3 mps 744 mmHg 54%
    19:00 +7°C° 0.1 mm 2 mps 744 mmHg 60%
    20:00 +5°C° 0.1 mm 3 mps 745 mmHg 64%
    21:00 +5°C° 0.1 mm 4 mps 745 mmHg 68%
    22:00 +4°C° 0.1 mm 4 mps 746 mmHg 72%
    23:00 +3°C° 0 mm 4 mps 746 mmHg 75%

    Day after tomorrow, 26 March, Tuesday

    Time Temperature Precipitation Wind Pressure Humidity
    00:00 +3°C° 0 mm 4 mps 747 mmHg 79%
    01:00 +1°C° 0 mm 4 mps 747 mmHg 82%
    02:00 +1°C° 0 mm 4 mps 748 mmHg 83%
    03:00 0°C° 0 mm 4 mps 748 mmHg 85%
    04:00 0°C° 0 mm 4 mps 749 mmHg 86%
    05:00 0°C° 0 mm 5 mps 749 mmHg 84%
    06:00 0°C° 0 mm 5 mps 750 mmHg 82%
    07:00 +1°C° 0 mm 5 mps 751 mmHg 80%
    08:00 +1°C° 0 mm 5 mps 751 mmHg 72%
    09:00 +2°C° 0 mm 5 mps 752 mmHg 65%
    10:00 +3°C° 0 mm 5 mps 752 mmHg 57%
    11:00 +5°C° 0 mm 5 mps 752 mmHg 50%
    12:00 +6°C° 0 mm 5 mps 751 mmHg 43%
    13:00 +8°C° 0 mm 5 mps 751 mmHg 37%
    14:00 +8°C° 0 mm 6 mps 751 mmHg 37%
    15:00 +8°C° 0 mm 6 mps 750 mmHg 37%
    16:00 +8°C° 0 mm 7 mps 750 mmHg 37%
    17:00 +7°C° 0 mm 6 mps 750 mmHg 44%
    18:00 +5°C° 0 mm 6 mps 750 mmHg 50%
    19:00 +6°C° 0 mm 5 mps 751 mmHg 57%
    20:00 +5°C° 0 mm 5 mps 751 mmHg 61%
    21:00 +3°C° 0 mm 5 mps 752 mmHg 65%
    22:00 +3°C° 0 mm 4 mps 752 mmHg 69%
    23:00 +1°C° 0 mm 4 mps 753 mmHg 69%

    27 March, Wednesday

    Time Temperature Precipitation Wind Pressure Humidity
    00:00 0°C° 0 mm 4 mps 753 mmHg 68%
    01:00 0°C° 0 mm 3 mps 754 mmHg 68%
    02:00 -1°C° 0 mm 3 mps 754 mmHg 69%
    03:00 -2°C° 0 mm 2 mps 754 mmHg 70%
    04:00 -2°C° 0 mm 2 mps 755 mmHg 71%
    05:00 -2°C° 0 mm 2 mps 755 mmHg 66%
    06:00 -1°C° 0 mm 2 mps 756 mmHg 61%
    07:00 -1°C° 0 mm 2 mps 756 mmHg 56%
    08:00 +2°C° 0 mm 2 mps 756 mmHg 48%
    09:00 +3°C° 0 mm 2 mps 756 mmHg 41%
    10:00 +4°C° 0 mm 3 mps 757 mmHg 33%
    11:00 +6°C° 0 mm 2 mps 757 mmHg 33%
    12:00 +7°C° 0 mm 2 mps 757 mmHg 33%
    13:00 +8°C° 0 mm 2 mps 757 mmHg 34%
    14:00 +8°C° 0 mm 2 mps 756 mmHg 34%
    15:00 +9°C° 0 mm 2 mps 756 mmHg 35%
    16:00 +9°C° 0 mm 2 mps 756 mmHg 35%
    17:00 +8°C° 0 mm 2 mps 756 mmHg 40%
    18:00 +6°C° 0 mm 2 mps 757 mmHg 44%
    19:00 +6°C° 0 mm 1 mps 757 mmHg 48%
    20:00 +5°C° 0 mm 2 mps 757 mmHg 51%
    21:00 +4°C° 0 mm 2 mps 757 mmHg 54%
    22:00 +4°C° 0 mm 2 mps 758 mmHg 56%
    23:00 +3°C° 0 mm 2 mps 758 mmHg 59%

    28 March, Thursday

    Time Temperature Precipitation Wind Pressure Humidity
    00:00 +3°C° 0 mm 2 mps 758 mmHg 61%
    01:00 +3°C° 0 mm 2 mps 758 mmHg 64%
    02:00 +2°C° 0 mm 2 mps 758 mmHg 67%
    03:00 +2°C° 0 mm 2 mps 758 mmHg 69%
    04:00 +2°C° 0 mm 2 mps 758 mmHg 72%
    05:00 +2°C° 0 mm 2 mps 758 mmHg 71%
    06:00 +3°C° 0 mm 2 mps 758 mmHg 69%
    07:00 +4°C° 0 mm 2 mps 759 mmHg 68%
    08:00 +6°C° 0 mm 2 mps 759 mmHg 63%
    09:00 +8°C° 0 mm 2 mps 759 mmHg 59%
    10:00 +10°C° 0 mm 2 mps 759 mmHg 54%
    11:00 +10°C° 0 mm 2 mps 759 mmHg 54%
    12:00 +12°C° 0 mm 2 mps 758 mmHg 53%
    13:00 +12°C° 0 mm 2 mps 758 mmHg 52%
    14:00 +12°C° 0 mm 2 mps 758 mmHg 53%
    15:00 +12°C° 0 mm 2 mps 758 mmHg 54%
    16:00 +12°C° 0 mm 2 mps 758 mmHg 55%
    17:00 +10°C° 0 mm 2 mps 758 mmHg 59%
    18:00 +10°C° 0 mm 1 mps 758 mmHg 63%
    19:00 +10°C° 0 mm 1 mps 758 mmHg 68%
    20:00 +9°C° 0 mm 1 mps 758 mmHg 70%
    21:00 +9°C° 0 mm 1 mps 758 mmHg 71%
    22:00 +9°C° 0 mm 1 mps 759 mmHg 73%
    23:00 +8°C° 0 mm 1 mps 759 mmHg 76%

    29 March, Friday

    Time Temperature Precipitation Wind Pressure Humidity
    00:00 +7°C° 0 mm 1 mps 759 mmHg 80%
    01:00 +6°C° 0 mm 1 mps 759 mmHg 84%
    02:00 +6°C° 0 mm 1 mps 759 mmHg 86%
    03:00 +5°C° 0 mm 1 mps 758 mmHg 88%
    04:00 +5°C° 0 mm 1 mps 758 mmHg 90%
    05:00 +5°C° 0 mm 1 mps 759 mmHg 87%
    06:00 +6°C° 0 mm 1 mps 759 mmHg 85%
    07:00 +7°C° 0 mm 1 mps 759 mmHg 82%
    08:00 +8°C° 0 mm 1 mps 759 mmHg 74%
    09:00 +9°C° 0 mm 2 mps 759 mmHg 65%
    10:00 +12°C° 0 mm 2 mps 758 mmHg 57%
    11:00 +13°C° 0 mm 2 mps 758 mmHg 52%
    12:00 +14°C° 0 mm 2 mps 758 mmHg 48%
    13:00 +14°C° 0 mm 3 mps 757 mmHg 43%
    14:00 +14°C° 0 mm 3 mps 757 mmHg 44%
    15:00 +14°C° 0 mm 3 mps 757 mmHg 44%
    16:00 +14°C° 0 mm 3 mps 756 mmHg 45%
    17:00 +14°C° 0 mm 2 mps 756 mmHg 52%
    18:00 +12°C° 0 mm 2 mps 756 mmHg 59%
    19:00 +10°C° 0 mm 2 mps 756 mmHg 66%
    20:00 +9°C° 0 mm 2 mps 756 mmHg 70%
    21:00 +10°C° 0 mm 1 mps 757 mmHg 74%
    22:00 +9°C° 0 mm 1 mps 757 mmHg 78%
    23:00 +9°C° 0 mm 1 mps 757 mmHg 82%
    Show more